User: anonymous   Login
Location: Chipmunk Meadow
(41.1540°N, 122.8814°W)
Time: 13:03:20
(UTC+00:00)
Language:

Cosmos 1515 Rocket - Orbit

View from above orbital plane
View from above orbital plane
View from above satellite
View from above satellite

Ground track
Ground track

The orbit data is extracted from the following two-line orbital elements,

1 14552U 83122B   24172.17644957  .00000508  00000-0  57060-4 0  9997
2 14552  82.5231 199.0042 0016738   0.3569 359.7655 14.84680179188761
Epoch (UTC): 20 June 2024 04:14:05
Eccentricity: 0.0016738
inclination: 82.5231°
perigee height: 603 km
apogee height: 626 km
right ascension of ascending node: 199.0042°
argument of perigee: 0.3569°
revolutions per day: 14.84680179
mean anomaly at epoch: 359.7655°
orbit number at epoch: 18876

The dashed part of the orbit path shows where the satellite is in the earth's shadow,  

DLR